WD9EKA Weather Reports


time (UTC)temp
C
wind
direction
speed
KPH
gust
KPH
rain 1hr
cm
rain 24hr
cm
rain mn
cm
humidity
%
barometer
mb
20260906101310 21 19 1.6 3.2 0.00 0.00 0.00 99 1009.8
20260906100750 21 6 0.0 0.0 0.00 0.00 0.00 99 1009.8
20260906100230 21 55 0.0 0.0 0.00 0.00 0.00 99 1009.9
20260906095711 21 337 0.0 0.0 0.00 0.00 0.00 99 1009.7
20260906095150 21 197 0.0 3.2 0.00 0.00 0.00 99 1009.8
20260906094630 21 318 1.6 4.8 0.00 0.00 0.00 99 1009.7
20260906094110 21 149 0.0 0.0 0.00 0.00 0.00 99 1009.7
20260906093550 21 291 0.0 0.0 0.00 0.00 0.00 99 1009.5
20260906093030 21 103 0.0 0.0 0.00 0.00 0.00 99 1009.7
20260906092510 21 92 0.0 0.0 0.00 0.00 0.00 99 1009.7
20260906091950 21 94 0.0 3.2 0.00 0.00 0.00 99 1009.6
20260906091430 21 35 0.0 0.0 0.00 0.00 0.00 99 1009.4
20260906090855 21 140 1.6 3.2 0.00 0.00 0.00 99 1009.4
20260906090333 21 79 0.0 0.0 0.00 0.00 0.00 99 1009.5
20260906085815 21 203 0.0 0.0 0.00 0.00 0.00 99 1009.2
20260906085255 21 53 0.0 0.0 0.00 0.00 0.00 99 1009.3
20260906084734 21 122 0.0 0.0 0.00 0.00 0.00 99 1009.3
20260906084215 21 101 0.0 0.0 0.00 0.00 0.00 99 1009.3
20260906083654 21 113 0.0 0.0 0.00 0.00 0.00 99 1009.5
20260906083133 21 156 0.0 0.0 0.00 0.00 0.00 99 1009.4
20260906082614 21 287 0.0 0.0 0.00 0.00 0.00 99 1009.2
20260906082054 21 188 0.0 0.0 0.00 0.00 0.00 99 1009.4
20260906081533 21 43 0.0 0.0 0.00 0.00 0.00 99 1009.4
20260906081015 21 9 0.0 0.0 0.00 0.00 0.00 99 1009.4
20260906080454 21 190 0.0 0.0 0.00 0.00 0.00 99 1009.2
20260906075933 21 49 0.0 0.0 0.00 0.00 0.00 99 1009.3
20260906075414 21 320 0.0 0.0 0.00 0.00 0.00 99 1009.3
20260906074855 21 59 0.0 0.0 0.00 0.00 0.00 99 1008.8
20260906074333 21 88 0.0 0.0 0.00 0.00 0.00 99 1009.1
20260906073815 21 211 0.0 0.0 0.00 0.00 0.00 99 1009.0
20260906072733 21 48 0.0 0.0 0.00 0.00 0.00 99 1009.3
20260906072215 21 169 0.0 0.0 0.00 0.00 0.00 99 1009.0
20260906071118 21 56 0.0 0.0 0.00 0.00 0.00 99 1009.2
20260906070559 21 320 0.0 0.0 0.00 0.00 0.00 99 1009.2
20260906070039 21 321 0.0 0.0 0.00 0.00 0.00 99 1009.0
20260906065519 21 321 0.0 0.0 0.00 0.00 0.00 99 1009.1
20260906064959 21 194 0.0 0.0 0.00 0.00 0.00 99 1009.2
20260906064439 21 194 0.0 0.0 0.00 0.00 0.00 99 1009.3
20260906063918 21 79 0.0 0.0 0.00 0.00 0.00 99 1009.2
20260906063359 21 66 0.0 0.0 0.00 0.00 0.00 99 1009.4
20260906062319 21 161 0.0 0.0 0.00 0.00 0.00 99 1009.3
20260906061759 21 161 0.0 0.0 0.00 0.00 0.00 99 1009.4
20260906061233 21 162 0.0 0.0 0.00 0.00 0.00 99 1009.5
20260906060719 21 176 0.0 0.0 0.00 0.00 0.00 99 1009.4
20260906060159 21 208 0.0 0.0 0.00 0.00 0.00 99 1009.4
20260906054433 21 225 0.0 0.0 0.00 0.00 0.00 98 1009.2
20260906053833 21 225 0.0 0.0 0.00 0.00 0.00 98 1009.6
20260906053327 21 225 0.0 0.0 0.00 0.00 0.00 98 1009.4
20260906052807 22 243 0.0 1.6 0.00 0.00 0.00 97 1009.3
20260906052247 22 78 0.0 0.0 0.00 0.00 0.00 97 1009.3
20260906051733 22 70 0.0 0.0 0.00 0.00 0.00 97 1009.4
20260906051133 22 98 0.0 0.0 0.00 0.00 0.00 97 1009.2
20260906050533 22 271 0.0 0.0 0.00 0.00 0.00 96 1009.2
20260906044734 22 184 0.0 1.6 0.00 0.00 0.00 95 1009.5
20260906044133 22 121 0.0 1.6 0.00 0.00 0.00 95 1009.1
20260906043533 22 21 0.0 1.6 0.00 0.00 0.00 95 1009.1
20260906042933 22 83 0.0 1.6 0.00 0.00 0.00 94 1009.1
20260906042333 22 118 0.0 0.0 0.00 0.00 0.00 94 1009.0
20260906041134 23 106 0.0 0.0 0.00 0.00 0.00 92 1008.8
20260906040533 23 103 0.0 3.2 0.00 0.00 0.00 92 1009.0
20260906034733 23 309 3.2 4.8 0.00 0.00 0.00 92 1009.1
20260906034133 23 233 0.0 0.0 0.00 0.00 0.00 91 1009.1
20260906033533 24 98 0.0 0.0 0.00 0.00 0.00 91 1008.8
20260906032934 24 175 0.0 0.0 0.00 0.00 0.00 90 1008.9
20260906031134 25 179 1.6 3.2 0.00 0.00 0.00 88 1008.6
20260906030533 25 142 0.0 3.2 0.00 0.00 0.00 88 1008.6
20260906025933 25 184 0.0 0.0 0.00 0.00 0.00 87 1008.6
20260906025333 25 96 0.0 1.6 0.00 0.00 0.00 86 1008.5
20260906024733 26 344 0.0 3.2 0.00 0.00 0.00 86 1008.6
20260906024133 26 154 1.6 3.2 0.00 0.00 0.00 86 1008.7
20260906023533 26 103 0.0 0.0 0.00 0.00 0.00 86 1008.5
20260906022933 26 83 0.0 0.0 0.00 0.00 0.00 86 1008.6
20260906022333 26 56 0.0 0.0 0.00 0.00 0.00 86 1008.2
20260906021733 26 55 0.0 1.6 0.00 0.00 0.00 85 1008.2
20260906021133 26 229 1.6 3.2 0.00 0.00 0.00 85 1007.9
20260906020533 26 148 0.0 0.0 0.00 0.00 0.00 84 1008.0
20260906015933 26 87 3.2 6.4 0.00 0.00 0.00 84 1008.0
20260906015334 26 243 1.6 4.8 0.00 0.00 0.00 85 1007.9
20260906014733 27 190 0.0 1.6 0.00 0.00 0.00 87 1007.8
20260906014133 27 106 1.6 3.2 0.00 0.00 0.00 88 1007.7
20260906013533 27 211 1.6 3.2 0.00 0.00 0.00 90 1007.8
20260906012933 27 172 0.0 1.6 0.00 0.00 0.00 91 1007.4
20260906012333 27 35 0.0 0.0 0.00 0.00 0.00 90 1007.3
20260906011733 27 187 1.6 3.2 0.00 0.00 0.00 91 1007.2
20260906011133 27 182 0.0 0.0 0.00 0.00 0.00 90 1007.2
20260906010615 27 352 0.0 0.0 0.00 0.00 0.00 90 1007.0
20260906010055 27 202 0.0 0.0 0.00 0.00 0.00 92 1007.2
20260906005533 26 30 0.0 0.0 0.00 0.00 0.00 93 1006.7
20260906005015 26 228 0.0 3.2 0.00 0.00 0.00 93 1006.9
20260906004456 27 228 0.0 0.0 0.00 0.00 0.00 92 1006.9
20260906003431 27 218 0.0 0.0 0.00 0.00 0.00 91 1006.9
20260906002911 27 218 0.0 0.0 0.00 0.00 0.00 90 1006.8
20260906002352 27 218 0.0 0.0 0.00 0.00 0.00 90 1006.8
20260906001832 27 218 0.0 0.0 0.00 0.00 0.00 89 1007.0
20260906001312 28 218 0.0 0.0 0.00 0.00 0.00 88 1006.9
20260906000751 28 218 0.0 0.0 0.00 0.00 0.00 86 1006.8
20260906000234 28 218 0.0 0.0 0.00 0.00 0.00 85 1006.7
20260905235633 29 218 0.0 0.0 0.00 0.00 0.00 83 1006.8
20260905235119 30 218 0.0 0.0 0.00 0.00 0.00 82 1006.8
20260905234559 30 218 0.0 0.0 0.00 0.00 0.00 81 1006.5
20260905233519 31 341 0.0 0.0 0.00 0.00 0.00 79 1006.5
20260905231920 31 342 0.0 0.0 0.00 0.00 0.00 75 1006.7
20260905231400 32 341 0.0 0.0 0.00 0.00 0.00 74 1006.4
20260905230833 32 341 0.0 0.0 0.00 0.00 0.00 71 1006.6
20260905230319 32 357 0.0 0.0 0.00 0.00 0.00 72 1006.4
20260905225800 33 357 0.0 1.6 0.00 0.00 0.00 68 1006.7
20260905225240 33 47 0.0 1.6 0.00 0.00 0.00 68 1006.3
20260905224720 33 203 0.0 1.6 0.00 0.00 0.00 67 1006.3
20260905224200 33 209 0.0 0.0 0.00 0.00 0.00 68 1006.2
20260905223119 34 226 0.0 1.6 0.00 0.00 0.00 65 1006.2
20260905222600 33 96 0.0 0.0 0.00 0.00 0.00 65 1006.7
20260905222040 33 110 0.0 0.0 0.00 0.00 0.00 68 1006.2
20260905221519 34 311 0.0 1.6 0.00 0.00 0.00 64 1006.5
20260905220440 35 219 0.0 1.6 0.00 0.00 0.00 63 1006.4
20260905215919 35 277 0.0 1.6 0.00 0.00 0.00 61 1006.4
20260905215400 35 272 0.0 1.6 0.00 0.00 0.00 59 1006.3
20260905214840 35 229 1.6 1.6 0.00 0.00 0.00 60 1006.4
20260905214320 35 62 0.0 3.2 0.00 0.00 0.00 62 1006.4
20260905213800 35 301 0.0 0.0 0.00 0.00 0.00 62 1006.3
20260905213240 35 285 1.6 8.0 0.00 0.00 0.00 60 1006.3
20260905212200 35 235 0.0 0.0 0.00 0.00 0.00 59 1006.3
20260905211633 36 251 0.0 1.6 0.00 0.00 0.00 57 1006.2
20260905211120 36 43 1.6 3.2 0.00 0.00 0.00 58 1006.5
20260905210600 36 344 3.2 4.8 0.00 0.00 0.00 55 1006.4
20260905205520 35 276 1.6 3.2 0.00 0.00 0.00 60 1006.5
20260905205000 35 244 1.6 1.6 0.00 0.00 0.00 56 1006.6
20260905204433 35 281 6.4 8.0 0.00 0.00 0.00 56 1006.3
20260905203920 35 276 6.4 8.0 0.00 0.00 0.00 55 1006.8
20260905202834 35 324 0.0 0.0 0.00 0.00 0.00 58 1007.0
20260905202320 35 338 3.2 4.8 0.00 0.00 0.00 61 1006.8
20260905201800 35 242 3.2 6.4 0.00 0.00 0.00 59 1007.0
20260905201233 35 51 0.0 0.0 0.00 0.00 0.00 57 1006.9
20260905200720 35 52 0.0 1.6 0.00 0.00 0.00 56 1007.0
20260905200200 36 237 4.8 8.0 0.00 0.00 0.00 55 1006.8
20260905195633 35 161 0.0 3.2 0.00 0.00 0.00 57 1007.1
20260905195120 35 260 1.6 4.8 0.00 0.00 0.00 56 1006.9
20260905194600 36 281 4.8 6.4 0.00 0.00 0.00 54 1007.1
20260905194033 36 342 3.2 4.8 0.00 0.00 0.00 54 1007.1
20260905193520 35 157 3.2 4.8 0.00 0.00 0.00 56 1006.9
20260905193000 35 252 6.4 8.0 0.00 0.00 0.00 56 1007.1
20260905191400 35 271 0.0 0.0 0.00 0.00 0.00 57 1007.3
20260905190833 35 333 3.2 4.8 0.00 0.00 0.00 55 1007.3
20260905190320 36 264 4.8 9.7 0.00 0.00 0.00 54 1007.2
20260905185800 35 282 3.2 3.2 0.00 0.00 0.00 55 1007.3
20260905185233 35 264 8.0 9.7 0.00 0.00 0.00 56 1007.4
20260905184720 35 249 3.2 4.8 0.00 0.00 0.00 56 1007.5
20260905183633 35 308 6.4 9.7 0.00 0.00 0.00 55 1007.7
20260905183120 35 234 4.8 6.4 0.00 0.00 0.00 56 1007.5
20260905182600 35 243 3.2 3.2 0.00 0.00 0.00 56 1007.6
20260905182033 35 216 1.6 1.6 0.00 0.00 0.00 58 1007.9
20260905181520 35 248 3.2 4.8 0.00 0.00 0.00 57 1008.0
20260905181000 35 0 0.0 1.6 0.00 0.00 0.00 61 1007.9
20260905180433 35 266 6.4 6.4 0.00 0.00 0.00 62 1008.1
20260905175920 34 18 3.2 6.4 0.00 0.00 0.00 61 1008.0
20260905174833 35 300 3.2 3.2 0.00 0.00 0.00 61 1008.1
20260905174320 34 274 8.0 9.7 0.00 0.00 0.00 62 1008.1
20260905173800 34 236 3.2 4.8 0.00 0.00 0.00 62 1008.1
20260905173233 34 262 3.2 4.8 0.00 0.00 0.00 63 1008.2
20260905172720 35 240 3.2 6.4 0.00 0.00 0.00 62 1008.2
20260905172200 34 273 0.0 0.0 0.00 0.00 0.00 61 1008.3
20260905171633 34 251 6.4 6.4 0.00 0.00 0.00 61 1008.3
20260905171120 34 230 1.6 3.2 0.00 0.00 0.00 62 1008.3
20260905170600 34 215 3.2 4.8 0.00 0.00 0.00 64 1008.5
20260905170033 34 266 4.8 6.4 0.00 0.00 0.00 62 1008.6
20260905165520 34 251 1.6 3.2 0.00 0.00 0.00 65 1008.5
20260905164433 33 251 0.0 1.6 0.00 0.00 0.00 65 1008.5
20260905163904 33 243 0.0 0.0 0.00 0.00 0.00 65 1008.6
20260905163333 33 210 3.2 4.8 0.00 0.00 0.00 64 1008.9
20260905162824 33 163 0.0 1.6 0.00 0.00 0.00 64 1008.8
20260905162306 33 215 1.6 3.2 0.00 0.00 0.00 64 1008.8
20260905161733 33 142 0.0 0.0 0.00 0.00 0.00 64 1008.9
20260905161224 33 94 0.0 0.0 0.00 0.00 0.00 65 1008.9
20260905160705 33 92 0.0 1.6 0.00 0.00 0.00 65 1008.8
20260905155624 32 87 0.0 1.6 0.00 0.00 0.00 69 1008.9
20260905155105 32 87 3.2 3.2 0.00 0.00 0.00 69 1008.9
20260905154533 32 83 0.0 0.0 0.00 0.00 0.00 71 1008.9
20260905154024 31 176 3.2 4.8 0.00 0.00 0.00 71 1008.8
20260905153504 31 141 4.8 6.4 0.00 0.00 0.00 72 1008.8
20260905152933 32 115 0.0 0.0 0.00 0.00 0.00 72 1008.9
20260905152424 31 148 1.6 3.2 0.00 0.00 0.00 70 1009.0
20260905151904 31 111 0.0 3.2 0.00 0.00 0.00 71 1009.1
20260905151333 31 128 3.2 4.8 0.00 0.00 0.00 72 1009.1
20260905150304 31 144 1.6 4.8 0.00 0.00 0.00 73 1009.1
20260905145744 31 42 3.2 4.8 0.00 0.00 0.00 73 1009.2
20260905145233 31 179 0.0 1.6 0.00 0.00 0.00 74 1009.2
20260905144720 31 222 0.0 0.0 0.00 0.00 0.00 76 1009.0
20260905144201 31 222 0.0 0.0 0.00 0.00 0.00 74 1009.0
20260905143633 32 222 0.0 0.0 0.00 0.00 0.00 72 1008.9
20260905143120 31 222 0.0 0.0 0.00 0.00 0.00 73 1008.6
20260905142600 31 222 0.0 0.0 0.00 0.00 0.00 73 1008.9
20260905142033 31 222 0.0 0.0 0.00 0.00 0.00 72 1008.8
20260905141520 30 222 0.0 0.0 0.00 0.00 0.00 73 1008.8
20260905141000 30 223 0.0 1.6 0.00 0.00 0.00 76 1008.8
20260905140433 30 222 0.0 0.0 0.00 0.00 0.00 78 1008.9
20260905135920 29 223 0.0 0.0 0.00 0.00 0.00 78 1008.8
20260905135401 29 223 0.0 0.0 0.00 0.00 0.00 80 1008.8
20260905134833 29 223 0.0 0.0 0.00 0.00 0.00 78 1008.7
20260905134320 28 223 0.0 0.0 0.00 0.00 0.00 79 1008.8
20260905133233 27 223 0.0 0.0 0.00 0.00 0.00 84 1008.6
20260905132633 27 223 0.0 0.0 0.00 0.00 0.00 90 1008.8
20260905131533 26 223 0.0 0.0 0.00 0.00 0.00 98 1008.9
20260905131016 25 223 0.0 0.0 0.00 0.00 0.00 99 1008.9
20260905130456 25 223 0.0 0.0 0.00 0.00 0.00 99 1008.9
20260905125933 25 223 0.0 0.0 0.00 0.00 0.00 99 1008.7
20260905125333 24 223 0.0 0.0 0.00 0.00 0.00 99 1008.8
20260905124733 23 223 0.0 0.0 0.00 0.00 0.00 99 1008.7
20260905124133 23 223 0.0 0.0 0.00 0.00 0.00 99 1009.0
20260905123533 23 223 0.0 0.0 0.00 0.00 0.00 99 1008.8
20260905123033 22 223 0.0 0.0 0.00 0.00 0.00 99 1009.0
20260905122513 22 223 0.0 0.0 0.00 0.00 0.00 99 1008.7
20260905121952 22 223 0.0 0.0 0.00 0.00 0.00 99 1008.9
20260905121433 22 223 0.0 0.0 0.00 0.00 0.00 99 1008.8
20260905120913 22 223 0.0 0.0 0.00 0.00 0.00 99 1008.8
20260905120333 21 223 0.0 0.0 0.00 0.00 0.00 99 1008.4
20260905115733 21 223 0.0 0.0 0.00 0.00 0.00 99 1008.8
20260905115133 21 223 0.0 0.0 0.00 0.00 0.00 99 1008.6
20260905114533 21 223 0.0 0.0 0.00 0.00 0.00 99 1008.5
20260905113933 21 223 0.0 0.0 0.00 0.00 0.00 99 1008.5
20260905112733 21 223 0.0 0.0 0.00 0.00 0.00 99 1008.6
20260905111624 21 223 0.0 0.0 0.00 0.00 0.00 99 1008.5
20260905110533 21 223 0.0 0.0 0.00 0.00 0.00 99 1008.3
20260905110025 21 223 0.0 0.0 0.00 0.00 0.00 99 1008.1
20260905105505 21 223 0.0 0.0 0.00 0.00 0.00 99 1008.4
20260905104933 21 223 0.0 0.0 0.00 0.00 0.00 99 1008.3
20260905103905 21 223 0.0 0.0 0.00 0.00 0.00 99 1008.4
20260905103333 21 223 0.0 0.0 0.00 0.00 0.00 99 1008.3
20260905102733 21 223 0.0 0.0 0.00 0.00 0.00 99 1008.2
20260905102133 21 223 0.0 0.0 0.00 0.00 0.00 99 1008.3